Content
SEND FEEDBACK

Daily
Averages
Monthly
Summary
United States of America

BLACK HAWK, SOUTH DAKOTA


Home > North America > United States > South Dakota
Elevation: 3352 feet     Latitude: 44 05N     Longitude: 103 16W

WEATHER
 
SELECT A DAY
Number of Records: 204,184;   Date Range: 1/1/95 - 8/28/14
 
SHARE

PRINT THIS DATA

[ ← Previous Day ]
WEATHER ALMANAC - DECEMBER 15, 2013
[ Next Day → ]
[ °C ]   °F
Weather ElementAverageHighLow
Temperature42.1 °F50.2 °F (12:58 pm)36.7 °F (3:58 am)
Dewpoint26.1 °F29.8 °F (2:58 pm)21.4 °F (11:58 pm)
Humidity53.6 %71 % (3:58 am)37 % (12:58 pm)
Barometer29.95 in30.02 in (1:58 am)29.90 in (12:58 pm)
Wind Speed7.3 mph16.1 mph (12:58 pm)
Wind Gust25.3 mph (12:58 pm)
Weather ElementAverage
Visibility10 mi
Wind DirectionWSW (236.1 °)

Weather ElementTotal
Precipitation---
Heating Degree Days21.6 (Base 65)
Averaged from 23 records on December 15, 2013
WEATHER CONDITIONS BREAKOUT
WIND DIRECTION BREAKOUT
WEATHER BY HOUR - DECEMBER 15, 2013
[ °C ]   °F
Local TimeTemperatureDewpointHumidityBarometerVisibilityWind DirectionWind SpeedGust SpeedPrecipitationEventsConditions
1:58 AM39.6 °F27.9 °F63 %30.02 in10.0 miWSW (250°)6.9 mphOvercast
2:58 AM39.9 °F27.0 °F60 %30.01 in10.0 miWSW (240°)9.2 mphOvercast
3:58 AM36.7 °F28.0 °F71 %29.99 in10.0 miNW (310°)5.8 mphOvercast
4:58 AM39.0 °F27.9 °F64 %29.98 in10.0 miWest (260°)6.9 mphOvercast
5:58 AM40.5 °F27.3 °F59 %29.95 in10.0 miWest (260°)8.1 mphOvercast
6:58 AM40.8 °F27.0 °F58 %29.94 in10.0 miSW (220°)6.9 mphOvercast
7:58 AM40.6 °F27.0 °F58 %29.94 in10.0 miWSW (240°)9.2 mphScattered Clouds
8:58 AM42.1 °F25.5 °F52 %29.96 in10.0 miWest (280°)3.5 mphClear
9:58 AM43.2 °F27.1 °F53 %29.95 in10.0 miNW (320°)11.5 mphClear
10:58 AM43.7 °F27.7 °F53 %29.95 in10.0 miWest (270°)6.9 mphClear
11:58 AM45.9 °F29.1 °F52 %29.93 in10.0 miESE (110°)4.6 mphClear
12:58 PM50.2 °F24.4 °F37 %29.90 in10.0 miNNW (340°)16.1 mph25.3 mphClear
1:58 PM47.3 °F25.7 °F43 %29.91 in10.0 miNNW (340°)16.1 mphClear
2:58 PM47.7 °F29.8 °F50 %29.92 in10.0 miNW (320°)8.1 mphClear
3:58 PM45.0 °F28.6 °F53 %29.95 in10.0 miWSW (250°)4.6 mphClear
4:58 PM43.3 °F24.4 °F47 %29.94 in10.0 miSouth (180°)3.5 mphClear
5:58 PM42.1 °F26.1 °F53 %29.95 in10.0 miSW (220°)8.1 mphClear
6:58 PM43.2 °F23.7 °F46 %29.94 in10.0 miCalmClear
7:58 PM42.3 °F23.7 °F48 %29.94 in10.0 miSSW (210°)4.6 mphClear
8:58 PM39.6 °F24.3 °F54 %29.94 in10.0 miENE (60°)6.9 mphClear
9:58 PM41.0 °F23.5 °F50 %29.94 in10.0 miWSW (240°)3.5 mphClear
10:58 PM38.3 °F23.5 °F55 %29.94 in10.0 miWSW (250°)9.2 mphClear
11:58 PM36.9 °F21.4 °F54 %29.94 in10.0 miWest (260°)8.1 mphClear
Hourly data recorded from KRCA, located miles away from Black Hawk, South Dakota







STORIES FROM OUR PARTNERS